Location: Unspecified
(49.2170°N, 0.0000°E)
Time: 15:35:38
(UTC+00:00)

Transit 2A - Pass Details

Date: 17 June 2019
Orbit: 594 x 965 km, 66.7° (Epoch: 17 July)

Event Time Altitude Azimuth Distance (km) Brightness Sun altitude
Rises 03:15:15 0° 246° (WSW) 3,641 - -5.5°
Exits shadow 03:16:11 - 249° (WSW) 3,322 8.7 -5.4°
Reaches altitude 10° 03:18:03 10° 255° (WSW) 2,702 8.3 -5.2°
Maximum altitude 03:23:53 36° 321° (NW) 1,466 7.6 -4.5°
Drops below altitude 10° 03:29:33 10° 27° (NNE) 2,625 10.2 -3.9°
Sets 03:32:14 0° 36° (NE) 3,525 11.7 -3.5°
